Regional Weather Roundup
Issued by NWS

Home | Current Version | Previous Version | Graphics & Text | Print | Product List | Glossary On
Versions: 1 2 3 4 5 6 7 8 9 10 11 12 13 14 15 16 17 18 19 20 21 22 23 24 25 26 27 28 29 30 31 32 33 34 35 36 37 38 39 40 41 42 43 44 45 46 47 48 49 50
165
ASUS45 KSLC 260810
RWRUT

UTAH REGIONAL WEATHER ROUNDUP
NATIONAL WEATHER SERVICE SALT LAKE CITY UT
200 AM MDT MON JUN 26 2017

UTZ001>011-023>025-260900-

NORTHERN UTAH

CITY           SKY/WX    TMP DP  RH WIND       PRES   REMARKS
BRIGHAM CITY   CLEAR     69  42  37 W3        30.10F
HILL AFB       CLEAR     69  42  38 E18       30.14S
LOGAN          CLEAR     61  49  64 CALM      30.15S
OGDEN          CLEAR     70  43  37 S9        30.11R
SALT LAKE CITY NOT AVBL
TOOELE VALLEY  CLEAR     63  37  39 S7        30.11S
WENDOVER         N/A     71  33  24 CALM      30.10S
HEBER CITY     CLEAR     50  41  71 CALM      30.23S
WEST JORDAN    CLEAR     69  49  48 CALM      30.13S

$$

UTZ011>015-024>027-260900-

CENTRAL/NORTHEAST UTAH

CITY           SKY/WX    TMP DP  RH WIND       PRES   REMARKS
PROVO AIRPORT  CLEAR     63  46  54 CALM      30.14R
MOAB/CANYONLAN CLEAR     84  24  11 VRB5      30.06F
DELTA          CLEAR     64  30  27 N9        30.12S
PRICE          CLEAR     68  28  22 N12       30.22S
VERNAL         CLEAR     62  35  36 W7        30.21R

$$

UTZ013>016-019>022-027-260900-

SOUTHERN UTAH

CITY           SKY/WX    TMP DP  RH WIND       PRES   REMARKS
BRYCE CANYON   CLEAR     51  30  44 W10       30.38S
CEDAR CITY     CLEAR     64  29  26 CALM      30.18R
MILFORD        CLEAR     60  32  34 S5        30.14R
ST GEORGE      SUNNY     86  35  16 NE6       29.94R
HANKSVILLE     CLEAR     70  18  13 CALM      30.10S
BLANDING       CLEAR     62  22  21 W3        30.25S

$$

REGIONAL REPORTS     COLORADO/ARIZONA

CITY           SKY/WX    TMP DP  RH WIND       PRES   REMARKS
CRAIG, CO      CLEAR     46  36  68 CALM      30.32R
GRAND JUNCTION CLEAR     74  29  19 SW6       30.13S
RIFLE, CO      CLEAR     58  36  43 NE3       30.24R
MONTROSE, CO   CLEAR     63  29  27 SE9       30.23S
CORTEZ, CO     CLEAR     53  27  36 E5        30.22R
COLORADO CITY    N/A     64  34  32 S5        30.15S
PAGE, AZ       NOT AVBL
GRAND CANYON   PTCLDY    50  37  61 CALM      30.31S
KINGMAN, AZ    CLEAR     79  34  19 S10       30.02R
FLAGSTAFF, AZ  PTCLDY    54  46  74 CALM      30.34S

$$

REGIONAL REPORTS    NEVADA/IDAHO/WYOMING

CITY           SKY/WX    TMP DP  RH WIND       PRES   REMARKS
LAS VEGAS, NV  CLEAR     97  19   6 SW9       29.86S HX  90
ELY, NY        PTCLDY    54  28  36 S8        30.24S
ELKO, NV       CLEAR     67  36  31 NE7       30.12S
POCATELLO, ID  CLEAR     60  43  53 E5        30.14S
BURLEY, ID     CLEAR     60  53  77 CALM      30.07F
FORT BRIDGER,    N/A     65  31  27 CALM      30.37F
EVANSTON, WY   CLOUDY    61  33  35 CALM      30.35S
ROCK SPRINGS,  CLEAR     60  24  25 E8        30.34R
KEMMERER, WY     N/A     54  37  54 N12       30.38S

$$




USA.gov is the U.S. government's official web portal to all federal, state and local government web resources and services.